EW7328 Weather Reports


time (UTC)temp
C
wind
direction
speed
KPH
gust
KPH
rain 1hr
cm
rain 24hr
cm
rain mn
cm
humidity
%
barometer
mb
20260508013353 20 279 3.2 6.4 0.00 0.00 0.00 74 1013.3
20260508012854 20 168 3.2 9.7 0.00 0.00 0.00 74 1013.3
20260508012354 20 219 3.2 9.7 0.00 0.00 0.00 73 1013.3
20260508011854 20 214 3.2 9.7 0.00 0.00 0.00 72 1013.2
20260508011357 20 209 4.8 9.7 0.00 0.00 0.00 71 1013.3
20260508011352 20 234 4.8 9.7 0.00 0.00 0.00 72 1013.3
20260508010352 20 204 4.8 9.7 0.00 0.00 0.00 70 1013.3
20260508005852 21 278 4.8 8.0 0.00 0.00 0.00 70 1013.2
20260508005351 21 265 4.8 11.3 0.00 0.00 0.00 70 1013.2
20260508004852 21 204 3.2 11.3 0.00 0.00 0.00 70 1013.2
20260508004356 21 283 3.2 11.3 0.00 0.00 0.00 69 1013.0
20260508004351 21 235 6.4 9.7 0.00 0.00 0.00 69 1013.1
20260508003353 21 213 4.8 11.3 0.00 0.00 0.00 69 1013.0
20260508002851 21 241 4.8 16.1 0.00 0.00 0.00 69 1013.1
20260508002356 21 243 4.8 14.5 0.00 0.00 0.00 69 1013.1
20260508002351 21 214 6.4 16.1 0.00 0.00 0.00 69 1013.1
20260508001355 21 214 6.4 9.7 0.00 0.00 0.00 68 1013.1
20260508000851 21 200 3.2 11.3 0.00 0.00 0.00 68 1013.1
20260508000350 21 250 6.4 16.1 0.00 0.00 0.00 67 1013.1
20260507235851 21 203 4.8 16.1 0.00 0.00 0.00 68 1013.1
20260507235350 21 220 6.4 11.3 0.00 0.00 0.00 68 1012.9
20260507234850 21 230 6.4 11.3 0.00 0.00 0.00 67 1013.2
20260507234350 22 179 8.0 11.3 0.00 0.00 0.00 67 1013.2
20260507233847 22 234 4.8 9.7 0.00 0.00 0.00 67 1013.2
20260507233350 22 234 6.4 11.3 0.00 0.00 0.00 67 1013.3
20260507232850 22 248 6.4 16.1 0.00 0.00 0.00 67 1013.2
20260507232353 22 237 6.4 14.5 0.00 0.00 0.00 67 1013.2
20260507232348 22 264 6.4 16.1 0.00 0.00 0.00 67 1013.1
20260507231354 22 262 8.0 16.1 0.00 0.00 0.00 65 1013.3
20260507231350 22 252 8.0 16.1 0.00 0.00 0.00 66 1013.2
20260507230352 23 247 6.4 11.3 0.00 0.00 0.00 63 1013.2
20260507225848 23 214 4.8 9.7 0.00 0.00 0.00 63 1013.2
20260507225348 23 226 3.2 11.3 0.00 0.00 0.00 63 1013.3
20260507224848 23 209 3.2 11.3 0.00 0.00 0.00 63 1013.3
20260507224348 23 220 6.4 11.3 0.00 0.00 0.00 61 1013.4
20260507223846 23 209 3.2 9.7 0.00 0.00 0.00 62 1013.4
20260507223346 23 196 3.2 11.3 0.00 0.00 0.00 62 1013.4
20260507222847 23 138 6.4 11.3 0.00 0.00 0.00 62 1013.5
20260507222347 23 207 3.2 17.7 0.00 0.00 0.00 62 1013.4
20260507221846 23 243 4.8 17.7 0.00 0.00 0.00 61 1013.5
20260507221351 23 235 6.4 16.1 0.00 0.00 0.00 60 1013.6
20260507221346 23 282 9.7 16.1 0.00 0.00 0.00 61 1013.4
20260507221002 23 252 6.4 16.1 0.00 0.00 0.00 62 1013.6
20260507215846 23 188 6.4 16.1 0.00 0.00 0.00 62 1013.8
20260507215351 23 193 3.2 16.1 0.00 0.00 0.00 63 1013.8
20260507215345 23 254 6.4 16.1 0.00 0.00 0.00 62 1013.8
20260507214351 23 240 8.0 16.1 0.00 0.00 0.00 61 1013.9
20260507214346 23 266 6.4 16.1 0.00 0.00 0.00 62 1013.9
20260507213346 23 207 3.2 16.1 0.00 0.00 0.00 63 1014.0
20260507212845 23 176 6.4 16.1 0.00 0.00 0.00 63 1014.1
20260507212346 23 262 6.4 14.5 0.00 0.00 0.00 62 1014.1
20260507211849 23 203 3.2 17.7 0.00 0.00 0.00 62 1014.2
20260507211845 23 252 6.4 14.5 0.00 0.00 0.00 61 1014.1
20260507210843 23 261 8.0 17.7 0.00 0.00 0.00 61 1014.1
20260507210345 23 238 8.0 16.1 0.00 0.00 0.00 60 1014.1
20260507205845 23 189 4.8 9.7 0.00 0.00 0.00 61 1014.1
20260507205348 23 282 6.4 14.5 0.00 0.00 0.00 61 1014.2
20260507205343 23 206 4.8 14.5 0.00 0.00 0.00 61 1014.1
20260507205001 23 228 6.4 14.5 0.00 0.00 0.00 61 1014.2
20260507203844 23 251 6.4 14.5 0.00 0.00 0.00 61 1014.3
20260507203343 23 183 4.8 14.5 0.00 0.00 0.00 62 1014.3
20260507202843 23 282 8.0 17.7 0.00 0.00 0.00 62 1014.3
20260507202342 23 261 9.7 17.7 0.00 0.00 0.00 62 1014.3
20260507201841 23 223 6.4 16.1 0.00 0.00 0.00 62 1014.3
20260507201343 23 228 6.4 16.1 0.00 0.00 0.00 61 1014.3
20260507200844 23 248 6.4 11.3 0.00 0.00 0.00 62 1014.4
20260507200343 23 235 4.8 14.5 0.00 0.00 0.00 64 1014.5
20260507195843 23 197 3.2 16.1 0.00 0.00 0.00 64 1014.5
20260507195343 23 264 8.0 16.1 0.00 0.00 0.00 64 1014.5
20260507194842 23 271 8.0 16.1 0.00 0.00 0.00 63 1014.5
20260507194343 23 221 4.8 11.3 0.00 0.00 0.00 64 1014.6
20260507193842 23 212 4.8 17.7 0.00 0.00 0.00 64 1014.6
20260507193342 23 182 9.7 17.7 0.00 0.00 0.00 63 1014.6
20260507192841 23 233 6.4 14.5 0.00 0.00 0.00 64 1014.9
20260507192341 23 230 3.2 9.7 0.00 0.00 0.00 64 1014.8
20260507191840 23 221 4.8 11.3 0.00 0.00 0.00 64 1014.9
20260507191339 22 241 6.4 11.3 0.00 0.00 0.00 64 1014.9
20260507190841 22 220 6.4 14.5 0.00 0.00 0.00 64 1014.9
20260507190344 23 231 6.4 14.5 0.00 0.00 0.00 64 1015.0
20260507190340 23 274 8.0 14.5 0.00 0.00 0.00 63 1015.0
20260507185340 23 217 6.4 14.5 0.00 0.00 0.00 63 1015.1
20260507184841 22 168 3.2 14.5 0.00 0.00 0.00 64 1015.1
20260507184339 22 231 4.8 9.7 0.00 0.00 0.00 64 1015.2
20260507183840 22 192 3.2 14.5 0.00 0.00 0.00 64 1015.3
20260507183339 22 227 4.8 14.5 0.00 0.00 0.00 63 1015.4
20260507182838 23 186 4.8 9.7 0.00 0.00 0.00 63 1015.3
20260507182338 22 166 4.8 11.3 0.00 0.00 0.00 65 1015.3
20260507181845 22 200 4.8 8.0 0.00 0.00 0.00 63 1015.3
20260507181839 23 265 6.4 11.3 0.00 0.00 0.00 64 1015.3
20260507180839 22 250 3.2 8.0 0.00 0.00 0.00 64 1015.3
20260507180345 22 206 3.2 9.7 0.00 0.00 0.00 66 1015.4
20260507180338 22 266 4.8 9.7 0.00 0.00 0.00 66 1015.4
20260507175338 22 233 4.8 9.7 0.00 0.00 0.00 65 1015.4
20260507174838 22 247 6.4 9.7 0.00 0.00 0.00 65 1015.4
20260507174338 22 142 3.2 9.7 0.00 0.00 0.00 67 1015.4
20260507173843 21 323 3.2 8.0 0.00 0.00 0.00 68 1015.5
20260507173837 21 230 3.2 9.7 0.00 0.00 0.00 67 1015.4
20260507172843 20 276 3.2 9.7 0.00 0.00 0.00 71 1015.5
20260507172838 21 172 3.2 4.8 0.00 0.00 0.00 67 1015.5
20260507172337 21 172 1.6 6.4 0.00 0.00 0.00 69 1015.5
20260507171335 20 293 4.8 9.7 0.00 0.00 0.00 70 1015.6
20260507170838 20 116 0.0 9.7 0.00 0.00 0.00 72 1015.6
20260507170335 20 116 3.2 9.7 0.00 0.00 0.00 71 1015.6
20260507165836 20 209 1.6 9.7 0.00 0.00 0.00 72 1015.6
20260507165341 18 279 3.2 6.4 0.00 0.00 0.00 77 1015.7
20260507165335 19 257 3.2 9.7 0.00 0.00 0.00 73 1015.6
20260507164835 19 216 1.6 8.0 0.00 0.00 0.00 76 1015.7
20260507164336 19 279 3.2 8.0 0.00 0.00 0.00 76 1015.6
20260507163341 18 264 1.6 8.0 0.00 0.00 0.00 78 1015.9
20260507163335 18 264 3.2 4.8 0.00 0.00 0.00 77 1015.7
20260507162836 18 264 1.6 6.4 0.00 0.00 0.00 78 1015.9
20260507161833 18 275 4.8 8.0 0.00 0.00 0.00 79 1015.8
20260507161334 18 259 1.6 6.4 0.00 0.00 0.00 79 1015.8
20260507160833 17 241 3.2 4.8 0.00 0.00 0.00 79 1015.8
20260507160333 17 251 1.6 8.0 0.00 0.00 0.00 80 1015.9
20260507155834 17 224 3.2 8.0 0.00 0.00 0.00 81 1015.9
20260507155334 17 228 3.2 6.4 0.00 0.00 0.00 82 1016.0
20260507154834 17 227 1.6 6.4 0.00 0.00 0.00 82 1016.0
20260507154334 17 228 0.0 3.2 0.00 0.00 0.00 82 1016.1
20260507153840 16 228 1.6 4.8 0.00 0.00 0.00 83 1016.1
20260507153834 16 228 0.0 4.8 0.00 0.00 0.00 83 1016.0
20260507153450 16 228 1.6 8.0 0.00 0.00 0.00 84 1016.0
20260507152337 16 281 1.6 4.8 0.00 0.00 0.00 84 1016.1
20260507152333 16 293 4.8 8.0 0.00 0.00 0.00 84 1016.1
20260507151833 16 259 3.2 6.4 0.00 0.00 0.00 84 1016.1
20260507150835 16 281 0.0 6.4 0.00 0.00 0.00 85 1016.1
20260507150831 16 281 1.6 4.8 0.00 0.00 0.00 85 1016.1
20260507150449 16 281 3.2 6.4 0.00 0.00 0.00 85 1016.1
20260507145332 16 281 3.2 6.4 0.00 0.00 0.00 86 1016.1
20260507144831 15 281 3.2 6.4 0.00 0.00 0.00 86 1016.0
20260507144331 15 282 1.6 4.8 0.00 0.00 0.00 87 1016.2
20260507143830 15 282 1.6 8.0 0.00 0.00 0.00 87 1016.0
20260507143331 15 282 3.2 8.0 0.00 0.00 0.00 88 1016.0
20260507142831 15 279 3.2 8.0 0.00 0.00 0.00 88 1016.0
20260507142331 15 241 0.0 1.6 0.00 0.00 0.00 88 1015.9
20260507141831 14 241 0.0 1.6 0.00 0.00 0.00 88 1015.9
20260507141331 14 241 0.0 1.6 0.00 0.00 0.00 88 1015.8
20260507140830 14 241 0.0 1.6 0.00 0.00 0.00 89 1015.7
20260507140329 13 241 0.0 1.6 0.00 0.00 0.00 89 1015.6
20260507135831 13 241 0.0 1.6 0.00 0.00 0.00 89 1015.6
20260507135330 13 241 0.0 0.0 0.00 0.00 0.00 88 1015.5
20260507134828 12 241 0.0 0.0 0.00 0.00 0.00 88 1015.5
20260507134330 12 241 0.0 0.0 0.00 0.00 0.00 88 1015.5
20260507133835 12 241 0.0 0.0 0.00 0.00 0.00 88 1015.4
20260507133830 12 241 0.0 0.0 0.00 0.00 0.00 88 1015.4
20260507132832 12 241 0.0 0.0 0.00 0.00 0.00 88 1015.2
20260507132828 12 241 0.0 0.0 0.00 0.00 0.00 88 1015.3
20260507132446 12 241 0.0 0.0 0.00 0.00 0.00 88 1015.3
20260507131328 12 241 0.0 0.0 0.00 0.00 0.00 88 1015.3
20260507130827 12 241 0.0 0.0 0.00 0.00 0.00 88 1015.3
20260507130329 12 241 0.0 0.0 0.00 0.00 0.00 88 1015.2
20260507125826 12 241 0.0 0.0 0.00 0.00 0.00 88 1015.1
20260507125325 12 241 0.0 0.0 0.00 0.00 0.00 88 1015.2
20260507124828 12 241 0.0 0.0 0.00 0.00 0.00 88 1015.1
20260507124328 12 241 0.0 0.0 0.00 0.00 0.00 88 1015.1
20260507123828 12 241 0.0 0.0 0.00 0.00 0.00 88 1015.1
20260507123327 12 241 0.0 0.0 0.00 0.00 0.00 88 1015.0
20260507122827 12 241 0.0 0.0 0.00 0.00 0.00 87 1015.0
20260507122327 12 241 0.0 0.0 0.00 0.00 0.00 87 1015.1
20260507121826 12 241 0.0 0.0 0.00 0.00 0.00 87 1015.1
20260507121326 12 241 0.0 0.0 0.00 0.00 0.00 87 1015.1
20260507120825 12 241 0.0 0.0 0.00 0.00 0.00 87 1015.1
20260507120324 13 241 0.0 0.0 0.00 0.00 0.00 87 1015.2
20260507115824 13 241 0.0 0.0 0.00 0.00 0.00 87 1015.2
20260507115322 13 241 0.0 0.0 0.00 0.00 0.00 87 1015.2
20260507114823 13 241 0.0 0.0 0.00 0.00 0.00 87 1015.2
20260507114328 13 241 0.0 0.0 0.00 0.00 0.00 87 1015.2
20260507114323 13 241 0.0 0.0 0.00 0.00 0.00 87 1015.2
20260507113323 13 241 0.0 0.0 0.00 0.00 0.00 87 1015.2
20260507112821 13 241 0.0 0.0 0.00 0.00 0.00 87 1015.2
20260507112324 13 241 0.0 0.0 0.00 0.00 0.00 87 1015.3
20260507112320 13 241 0.0 0.0 0.00 0.00 0.00 87 1015.1
20260507111931 13 241 0.0 0.0 0.00 0.00 0.00 87 1015.2
20260507111429 13 241 0.0 0.0 0.00 0.00 0.00 87 1015.2
20260507110324 13 241 0.0 0.0 0.00 0.00 0.00 85 1015.2
20260507110319 -17 0.0 0.0 0.00 0.00 0.00 1015.2
20260507105318 13 241 0.0 0.0 0.00 0.00 0.00 85 1015.3
20260507104817 13 241 0.0 0.0 0.00 0.00 0.00 85 1015.3
20260507104316 13 241 0.0 0.0 0.00 0.00 0.00 85 1015.4
20260507103816 13 241 0.0 0.0 0.00 0.00 0.00 85 1015.5
20260507103318 13 241 0.0 0.0 0.00 0.00 0.00 85 1015.5
20260507103314 13 241 0.0 0.0 0.00 0.00 0.00 85 1015.5
20260507102312 13 241 0.0 0.0 0.00 0.00 0.00 85 1015.5
20260507101815 13 241 0.0 0.0 0.00 0.00 0.00 85 1015.5
20260507101811 13 241 0.0 0.0 0.00 0.00 0.00 85 1015.4
20260507100809 13 241 0.0 0.0 0.00 0.00 0.00 85 1015.4
20260507100309 13 241 0.0 0.0 0.00 0.00 0.00 85 1015.4
20260507095813 13 241 0.0 0.0 0.00 0.00 0.00 85 1015.5
20260507095809 13 241 0.0 0.0 0.00 0.00 0.00 85 1015.4
20260507094806 -17 241 0.0 0.0 0.00 0.00 0.00 1015.5
20260507094307 15 241 0.0 0.0 0.00 0.00 0.00 83 1015.6
20260507093806 15 241 0.0 0.0 0.00 0.00 0.00 83 1015.6
20260507093307 15 241 0.0 0.0 0.00 0.00 0.00 83 1015.7
20260507092804 15 241 0.0 0.0 0.00 0.00 0.00 83 1015.7
20260507092307 15 241 0.0 0.0 0.00 0.00 0.00 83 1015.9
20260507091802 15 241 0.0 0.0 0.00 0.00 0.00 83 1015.9
20260507091301 15 241 0.0 0.0 0.00 0.00 0.00 83 1015.9
20260507090805 15 241 0.0 0.0 0.00 0.00 0.00 83 1016.0
20260507090800 15 241 0.0 0.0 0.00 0.00 0.00 83 1016.0
20260507085758 15 241 0.0 0.0 0.00 0.00 0.00 83 1016.1
20260507085258 15 241 0.0 0.0 0.00 0.00 0.00 83 1016.1
20260507084757 15 241 0.0 0.0 0.00 0.00 0.00 83 1016.3
20260507084257 15 241 0.0 0.0 0.00 0.00 0.00 83 1016.3
20260507083800 15 241 0.0 0.0 0.00 0.00 0.00 83 1016.5
20260507083756 15 241 0.0 0.0 0.00 0.00 0.00 83 1016.3
20260507083256 15 241 0.0 0.0 0.00 0.00 0.00 83 1016.4
20260507082256 15 241 0.0 0.0 0.00 0.00 0.00 83 1016.4
20260507081756 15 241 0.0 0.0 0.00 0.00 0.00 83 1016.4
20260507081256 15 241 0.0 0.0 0.00 0.00 0.00 83 1016.5
20260507080755 -17 241 0.0 0.0 0.00 0.00 0.00 1016.4
20260507080254 -17 0.0 0.0 0.00 0.00 0.00 1016.4
20260507075753 -17 0.0 0.0 0.00 0.00 0.00 1016.5
20260507075253 -17 0.0 0.0 0.00 0.00 0.00 1016.5
20260507074755 -17 0.0 0.0 0.00 0.00 0.00 1016.4
20260507074751 -17 0.0 0.0 0.00 0.00 0.00 1016.4
20260507073750 -17 0.0 0.0 0.00 0.00 0.00 1016.5
20260507073248 -17 0.0 0.0 0.00 0.00 0.00 1016.4
20260507072747 16 241 0.0 0.0 0.00 0.00 0.00 81 1016.4
20260507072246 16 241 0.0 0.0 0.00 0.00 0.00 81 1016.5
20260507071745 16 241 0.0 0.0 0.00 0.00 0.00 81 1016.4
20260507071244 16 241 0.0 0.0 0.00 0.00 0.00 81 1016.6
20260507070743 16 241 0.0 0.0 0.00 0.00 0.00 81 1016.6
20260507070243 16 241 0.0 0.0 0.00 0.00 0.00 81 1016.5
20260507065742 16 241 0.0 0.0 0.00 0.00 0.00 81 1016.6
20260507065240 16 241 0.0 0.0 0.00 0.00 0.00 81 1016.7
20260507064740 16 241 0.0 0.0 0.00 0.00 0.00 81 1016.7
20260507064239 16 241 0.0 0.0 0.00 0.00 0.00 81 1016.7
20260507063738 16 241 0.0 0.0 0.00 0.00 0.00 81 1016.7
20260507063242 16 241 1.6 4.8 0.00 0.00 0.00 81 1016.7
20260507063238 16 241 0.0 4.8 0.00 0.00 0.00 81 1016.7
20260507062236 16 241 1.6 3.2 0.00 0.00 0.00 81 1016.7
20260507061736 16 241 0.0 3.2 0.00 0.00 0.00 80 1016.8
20260507061241 16 241 3.2 3.2 0.00 0.00 0.00 80 1016.7
20260507061236 16 241 1.6 3.2 0.00 0.00 0.00 80 1016.8
20260507060851 16 241 0.0 0.0 0.00 0.00 0.00 75 1016.7
20260507060345 16 241 0.0 0.0 0.00 0.00 0.00 75 1016.7
20260507055235 16 241 0.0 0.0 0.00 0.00 0.00 75 1016.8
20260507054733 16 241 0.0 0.0 0.00 0.00 0.00 75 1016.8
20260507054231 16 241 0.0 0.0 0.00 0.00 0.00 75 1016.8
20260507053730 16 241 0.0 0.0 0.00 0.00 0.00 75 1016.8
20260507053230 16 241 0.0 1.6 0.00 0.00 0.00 75 1016.7
20260507052730 16 241 0.0 3.2 0.00 0.00 0.00 74 1016.7
20260507052229 16 241 1.6 3.2 0.00 0.00 0.00 74 1016.7
20260507051730 16 241 1.6 3.2 0.00 0.00 0.00 74 1016.6
20260507051230 16 241 1.6 4.8 0.00 0.00 0.00 75 1016.6
20260507050728 16 241 3.2 4.8 0.00 0.00 0.00 75 1016.6
20260507050227 16 241 1.6 4.8 0.00 0.00 0.00 77 1016.5
20260507045728 16 241 0.0 0.0 0.00 0.00 0.00 78 1016.6
20260507045233 17 241 0.0 0.0 0.00 0.00 0.00 78 1016.5
20260507045229 16 241 0.0 0.0 0.00 0.00 0.00 78 1016.5
20260507044227 17 241 0.0 0.0 0.00 0.00 0.00 78 1016.5
20260507043726 17 241 0.0 0.0 0.00 0.00 0.00 78 1016.6
20260507043228 17 241 0.0 0.0 0.00 0.00 0.00 77 1016.6
20260507042728 17 241 0.0 0.0 0.00 0.00 0.00 77 1016.5
20260507042347 17 241 0.0 1.6 0.00 0.00 0.00 77 1016.5
20260507042232 17 241 0.0 0.0 0.00 0.00 0.00 77 1016.5
20260507042227 17 241 0.0 0.0 0.00 0.00 0.00 77 1016.5
20260507040728 17 241 0.0 1.6 0.00 0.00 0.00 76 1016.5
20260507040226 17 241 0.0 3.2 0.00 0.00 0.00 76 1016.4
20260507035730 17 241 1.6 4.8 0.00 0.00 0.00 75 1016.4
20260507035726 17 241 0.0 4.8 0.00 0.00 0.00 76 1016.4
20260507034727 17 241 1.6 4.8 0.00 0.00 0.00 76 1016.2
20260507034225 17 241 0.0 0.0 0.00 0.00 0.00 75 1016.1
20260507033729 17 241 0.0 6.4 0.00 0.00 0.00 75 1016.1
20260507033225 17 241 0.0 6.4 0.00 0.00 0.00 75 1016.1
20260507032725 17 240 1.6 3.2 0.00 0.00 0.00 74 1016.1
20260507032226 18 240 0.0 1.6 0.00 0.00 0.00 74 1016.1
20260507031726 18 240 0.0 3.2 0.00 0.00 0.00 74 1015.9
20260507031224 18 240 3.2 3.2 0.00 0.00 0.00 74 1015.9
20260507030723 18 240 3.2 3.2 0.00 0.00 0.00 74 1015.8
20260507030222 18 240 1.6 6.4 0.00 0.00 0.00 73 1015.8
20260507025723 18 240 1.6 8.0 0.00 0.00 0.00 73 1015.8
20260507025229 18 283 4.8 6.4 0.00 0.00 0.00 72 1015.6
20260507025224 18 240 4.8 8.0 0.00 0.00 0.00 72 1015.8
20260507024221 18 221 3.2 8.0 0.00 0.00 0.00 71 1015.6
20260507023721 18 281 4.8 8.0 0.00 0.00 0.00 70 1015.6
20260507023222 18 254 0.0 11.3 0.00 0.00 0.00 69 1015.5
20260507022720 18 228 3.2 11.3 0.00 0.00 0.00 68 1015.5
20260507022221 18 223 6.4 9.7 0.00 0.00 0.00 68 1015.4
20260507021722 18 283 6.4 9.7 0.00 0.00 0.00 69 1015.4
20260507021221 19 269 6.4 9.7 0.00 0.00 0.00 69 1015.4
20260507020722 19 241 4.8 9.7 0.00 0.00 0.00 69 1015.4
20260507020221 19 223 4.8 9.7 0.00 0.00 0.00 68 1015.3
20260507015722 19 255 4.8 17.7 0.00 0.00 0.00 68 1015.3
20260507015220 20 217 4.8 17.7 0.00 0.00 0.00 67 1015.3
20260507014721 20 241 3.2 11.3 0.00 0.00 0.00 67 1015.3
20260507014221 20 255 4.8 11.3 0.00 0.00 0.00 67 1015.2
20260507013721 20 245 4.8 9.7 0.00 0.00 0.00 66 1015.3